Location: Normandy Village
(37.8755°N, 122.2655°W)
Time: 18:27:50
(UTC+00:00)

Shenzhou-11 Module - Pass Details

Date: 13 December 2019
Orbit: 302 x 315 km, 42.8° (Epoch: 24 January)

Event Time Altitude Azimuth Distance (km) Brightness Sun altitude
Rises 02:39:04 0° 288° (WNW) 2,069 6.7 -20.8°
Reaches altitude 10° 02:41:09 10° 280° (W) 1,231 5.6 -21.2°
Enters shadow 02:43:12 33° 239° (WSW) 564 3.5 -21.6°
